Flag for Morocco Weather past 2 weeks in Casablanca, Morocco

Now
63 °F

Scattered clouds.


Feels Like: 63 °F
Forecast: N/A
Wind: N/A

Location: Casablanca Airport

Current Time: Dec 18, 2014 at 3:26:03 PM

Latest Report: Dec 18, 2014 at 3:00 PM


Visibility: N/A

Pressure: 30.30 "Hg

Humidity: 77%

Dew point: 55 °F

Location of CasablancaLocation

Historic Weather in Casablanca — Graph

°F

Casablanca temperature yesterday

Maximum temperature yesterday: 66 °F (at 12:00 PM)
Minimum temperature yesterday: 55 °F (at 7:00 AM)
Average temperature yesterday: 61 °F

Past Weeks' High & Low Weather Summary

 TemperatureHumidityPressure
High68 °F (Dec 12, 12:00 PM)100% (Dec 4, 12:00 AM)30.39 "Hg (Dec 4, 12:00 AM)
Low46 °F (Dec 9, 6:00 AM)46% (Dec 13, 1:00 PM)29.83 "Hg (Dec 3, 2:00 PM)
Average58 °F86%30.19 "Hg
* Reported Dec 3 2:00 PM — Dec 18 2:00 PM, Casablanca, Weather by CustomWeather, © 2014

Note: Actual official high and low records may vary slightly from our data, if they occured in-between our weather recording intervals... More about our weather records

Advertising

Casablanca weather history for previous 24 hours

 ConditionsComfort  
Time TempWeatherWind HumidityBarometerVisibility
2:00 PM
Dec 18
64 °FScattered clouds.N/A73%30.33 "HgN/A
12:00 PM63 °FScattered clouds.N/A77%30.33 "Hg5 mi
11:00 AM57 °FScattered clouds.N/A94%30.33 "Hg4 mi
10:00 AM57 °FClear.N/A88%30.33 "Hg4 mi
9:00 AM57 °FClear.N/A88%30.30 "Hg3 mi
8:00 AM54 °FClear.N/A94%30.30 "Hg4 mi
7:00 AM52 °FSunny.N/A94%30.27 "Hg10 mi
2:00 AM55 °FClear.N/A94%30.27 "Hg10 mi
1:00 AM57 °FClear.N/A88%30.27 "Hg10 mi
12:00 AM57 °FClear.N/A94%30.27 "Hg10 mi
10:00 PM
Dec 17
61 °FClear.N/A77%30.27 "Hg10 mi
9:00 PM61 °FClear.N/A77%30.27 "Hg10 mi
8:00 PM61 °FClear.N/A77%30.27 "Hg10 mi
7:00 PM63 °FClear.N/A73%30.24 "Hg10 mi
6:00 PM61 °FClear.N/A83%30.24 "Hg10 mi
5:00 PM63 °FPassing clouds.N/A77%30.24 "HgN/A
4:00 PM64 °FPassing clouds.N/A73%30.24 "HgN/A
3:00 PM64 °FPassing clouds.N/A73%30.24 "HgN/A
Weather by CustomWeather, © 2014

See weather overviewHow to use our weather pages